,,PA_Meas_PMT16A,,PR_Meas_QMR101_102,,RH_Meas_QMH101,,SR_Meas_QMS101,,TA_Meas_QMH101,,GenWind,,GenWind,
time,status,PA,status,PR,status,RH,status,SR,status,TA,status,DirAvg,status,SpdAvg,
2010-06-08, 00:00:05,VALID,919.324,VALID,0,VALID,95.834,VALID,0,VALID,20.1693,VALID,29,VALID,1.03359,
2010-06-08, 00:01:05,VALID,919.336,VALID,0,VALID,95.7349,VALID,0,VALID,20.1498,VALID,29,VALID,0.942578,
2010-06-08, 00:02:05,VALID,919.317,VALID,0,VALID,95.7577,VALID,0,VALID,20.2098,VALID,29,VALID,0.558594,
2010-06-08, 00:03:05,VALID,919.337,VALID,0,VALID,95.6434,VALID,0,VALID,20.1708,VALID,29,VALID,0.9875,
2010-06-08, 00:04:05,VALID,919.341,VALID,0,VALID,95.5519,VALID,0,VALID,20.1708,VALID,29,VALID,1.01406,
2010-06-08, 00:05:05,VALID,919.272,VALID,0,VALID,95.5138,VALID,0,VALID,20.1693,VALID,29,VALID,0.758594,
2010-06-08, 00:06:05,VALID,919.305,VALID,0,VALID,95.5519,VALID,0,VALID,20.1498,VALID,346,VALID,1.00273,
2010-06-08, 00:07:05,VALID,919.298,VALID,0,VALID,95.5671,VALID,0,VALID,20.1513,VALID,306,VALID,1.08711,
2010-06-08, 00:08:05,VALID,919.267,VALID,0,VALID,95.6891,VALID,0,VALID,20.1498,VALID,293,VALID,0.772266,
2010-06-08, 00:09:05,VALID,919.232,VALID,0,VALID,95.7654,VALID,0,VALID,20.1498,VALID,293,VALID,1.00586,
2010-06-08, 00:10:05,VALID,919.262,VALID,0,VALID,95.8035,VALID,0,VALID,20.1708,VALID,294,VALID,0.542188,
2010-06-08, 00:11:05,VALID,919.228,VALID,0,VALID,95.834,VALID,0,VALID,20.1513,VALID,357,VALID,1.00039,
2010-06-08, 00:12:05,VALID,919.214,VALID,0,VALID,95.8568,VALID,0,VALID,20.1108,VALID,357,VALID,0.844922,
2010-06-08, 00:13:05,VALID,919.213,VALID,0,VALID,96.0169,VALID,0,VALID,20.1303,VALID,357,VALID,0.972656,
2010-06-08, 00:14:05,VALID,919.174,VALID,0,VALID,96.0398,VALID,0,VALID,20.1303,VALID,358,VALID,1.09063,
2010-06-08, 00:15:05,VALID,919.148,VALID,0,VALID,96.0093,VALID,0,VALID,20.1123,VALID,358,VALID,0.994922,
2010-06-08, 00:16:05,VALID,919.165,VALID,0,VALID,96.0398,VALID,0,VALID,20.0913,VALID,358,VALID,1.13086,
2010-06-08, 00:17:05,VALID,919.137,VALID,0,VALID,96.0474,VALID,0,VALID,20.0928,VALID,20,VALID,0.641797,
2010-06-08, 00:18:05,VALID,919.14,VALID,0,VALID,96.1008,VALID,0,VALID,20.0928,VALID,19,VALID,0.888672,
2010-06-08, 00:19:05,VALID,919.125,VALID,0,VALID,96.1313,VALID,0,VALID,20.0733,VALID,19,VALID,0.393359,
2010-06-08, 00:20:05,VALID,919.109,VALID,0,VALID,96.1008,VALID,0,VALID,20.0733,VALID,19,VALID,1.27227,
2010-06-08, 00:21:05,VALID,919.113,VALID,0,VALID,96.0474,VALID,0,VALID,20.0538,VALID,19,VALID,1.02344,
2010-06-08, 00:22:05,VALID,919.075,VALID,0,VALID,96.0017,VALID,0,VALID,20.0538,VALID,19,VALID,1.07305,
2010-06-08, 00:23:05,VALID,919.066,VALID,0,VALID,95.9483,VALID,0,VALID,20.0733,VALID,19,VALID,0.645312,
2010-06-08, 00:24:05,VALID,919.072,VALID,0,VALID,95.9407,VALID,0,VALID,20.0733,VALID,19,VALID,0.585938,
2010-06-08, 00:25:05,VALID,919.029,VALID,0,VALID,95.9407,VALID,0,VALID,20.0718,VALID,15,VALID,1.19687,
2010-06-08, 00:26:05,VALID,919.002,VALID,0,VALID,95.773,VALID,0,VALID,20.0523,VALID,10,VALID,0.785937,
2010-06-08, 00:27:05,VALID,918.969,VALID,0,VALID,95.7425,VALID,0,VALID,20.0928,VALID,10,VALID,0.506641,
2010-06-08, 00:28:05,VALID,918.996,VALID,0,VALID,95.6815,VALID,0,VALID,20.1123,VALID,10,VALID,0.5125,
2010-06-08, 00:29:05,VALID,918.977,VALID,0,VALID,95.6357,VALID,0,VALID,20.1108,VALID,10,VALID,0.79375,
2010-06-08, 00:30:05,VALID,918.969,VALID,0,VALID,95.5976,VALID,0,VALID,20.1318,VALID,10,VALID,0.925,
2010-06-08, 00:31:05,VALID,918.939,VALID,0,VALID,95.4985,VALID,0,VALID,20.1513,VALID,10,VALID,1.05781,
2010-06-08, 00:32:05,VALID,918.907,VALID,0,VALID,95.2241,VALID,0,VALID,20.1318,VALID,4,VALID,1.64063,
2010-06-08, 00:33:05,VALID,918.876,VALID,0,VALID,94.942,VALID,0,VALID,20.1708,VALID,36,VALID,1.83398,
2010-06-08, 00:34:05,VALID,918.912,VALID,0,VALID,94.8429,VALID,0,VALID,20.2098,VALID,32,VALID,0.483203,
2010-06-08, 00:35:05,VALID,918.905,VALID,0,VALID,94.7819,VALID,0,VALID,20.2293,VALID,31,VALID,0.69375,
2010-06-08, 00:36:05,VALID,918.912,VALID,0,VALID,94.881,VALID,0,VALID,20.2293,VALID,31,VALID,0.588672,
2010-06-08, 00:37:05,VALID,918.883,VALID,0,VALID,94.9573,VALID,0.107441,VALID,20.2098,VALID,31,VALID,0.203125,
2010-06-08, 00:38:05,VALID,918.879,VALID,0,VALID,95.0564,VALID,0,VALID,20.2098,VALID,31,VALID,0.830859,
2010-06-08, 00:39:05,VALID,918.857,VALID,0,VALID,95.247,VALID,0,VALID,20.1888,VALID,31,VALID,0.634766,
2010-06-08, 00:40:05,VALID,918.851,VALID,0,VALID,95.0411,VALID,0,VALID,20.1108,VALID,31,VALID,1.46016,
2010-06-08, 00:41:05,VALID,918.828,VALID,0,VALID,94.9496,VALID,0,VALID,20.1318,VALID,30,VALID,0.955078,
2010-06-08, 00:42:05,VALID,918.799,VALID,0,VALID,94.9344,VALID,0,VALID,20.1318,VALID,30,VALID,0.356641,
2010-06-08, 00:43:05,VALID,918.767,VALID,0,VALID,94.7743,VALID,0,VALID,20.1318,VALID,30,VALID,1.22617,
2010-06-08, 00:44:05,VALID,918.773,VALID,0,VALID,94.6981,VALID,0,VALID,20.1498,VALID,30,VALID,0.669922,
2010-06-08, 00:45:05,VALID,918.764,VALID,0,VALID,94.538,VALID,0,VALID,20.1513,VALID,17,VALID,1.01367,
2010-06-08, 00:46:05,VALID,918.73,VALID,0,VALID,94.5304,VALID,0,VALID,20.1708,VALID,13,VALID,0.516797,
2010-06-08, 00:47:05,VALID,918.731,VALID,0,VALID,94.4617,VALID,0,VALID,20.1903,VALID,13,VALID,0.663672,
2010-06-08, 00:48:05,VALID,918.714,VALID,0,VALID,94.3855,VALID,0,VALID,20.1708,VALID,13,VALID,0.807813,
2010-06-08, 00:49:05,VALID,918.683,VALID,0,VALID,94.3474,VALID,0,VALID,20.1708,VALID,13,VALID,0.694922,
2010-06-08, 00:50:05,VALID,918.661,VALID,0,VALID,94.4313,VALID,0,VALID,20.1919,VALID,13,VALID,1.45664,
2010-06-08, 00:51:05,VALID,918.654,VALID,0,VALID,94.4008,VALID,0,VALID,20.1513,VALID,13,VALID,1.29844,
2010-06-08, 00:52:05,VALID,918.624,VALID,0,VALID,94.5532,VALID,0,VALID,20.1513,VALID,13,VALID,1.425,
2010-06-08, 00:53:05,VALID,918.641,VALID,0,VALID,94.4465,VALID,0,VALID,20.1318,VALID,13,VALID,1.60156,
2010-06-08, 00:54:05,VALID,918.648,VALID,0,VALID,94.355,VALID,0,VALID,20.1318,VALID,13,VALID,1.45195,
2010-06-08, 00:55:05,VALID,918.619,VALID,0,VALID,94.2712,VALID,0,VALID,20.1318,VALID,13,VALID,1.00352,
2010-06-08, 00:56:05,VALID,918.616,VALID,0,VALID,94.2788,VALID,0,VALID,20.1708,VALID,13,VALID,0.330859,
2010-06-08, 00:57:05,VALID,918.571,VALID,0,VALID,93.9738,VALID,0,VALID,20.1708,VALID,357,VALID,0.760156,
2010-06-08, 00:58:05,VALID,918.523,VALID,0,VALID,93.6765,VALID,0,VALID,20.2098,VALID,357,VALID,0.506641,
2010-06-08, 00:59:05,VALID,918.466,VALID,0,VALID,93.7223,VALID,0,VALID,20.2293,VALID,357,VALID,0.433984,
2010-06-08, 01:00:05,VALID,918.476,VALID,0,VALID,93.5164,VALID,0,VALID,20.2098,VALID,357,VALID,0.64375,
2010-06-08, 01:01:05,VALID,918.417,VALID,0,VALID,93.5469,VALID,0,VALID,20.2098,VALID,357,VALID,0.653125,
2010-06-08, 01:02:05,VALID,918.346,VALID,0,VALID,93.7375,VALID,0,VALID,20.1903,VALID,357,VALID,1.45664,
2010-06-08, 01:03:05,VALID,918.305,VALID,0,VALID,93.5012,VALID,0,VALID,20.1513,VALID,51,VALID,1.98242,
2010-06-08, 01:04:05,VALID,918.316,VALID,0,VALID,93.5317,VALID,0,VALID,20.1708,VALID,20,VALID,1.50703,
2010-06-08, 01:05:05,VALID,918.331,VALID,0,VALID,93.5774,VALID,0,VALID,20.1903,VALID,20,VALID,0.716016,
2010-06-08, 01:06:05,VALID,918.323,VALID,0,VALID,93.6384,VALID,0,VALID,20.1903,VALID,20,VALID,0.543359,
2010-06-08, 01:07:05,VALID,918.298,VALID,0,VALID,93.8976,VALID,0,VALID,20.2098,VALID,20,VALID,0.699609,
2010-06-08, 01:08:05,VALID,918.291,VALID,0,VALID,93.4326,VALID,0,VALID,20.1513,VALID,31,VALID,1.94766,
2010-06-08, 01:09:05,VALID,918.334,VALID,0,VALID,93.4859,VALID,0,VALID,20.1708,VALID,40,VALID,1.68594,
2010-06-08, 01:10:05,VALID,918.347,VALID,0,VALID,93.4326,VALID,0,VALID,20.1513,VALID,40,VALID,1.29023,
2010-06-08, 01:11:05,VALID,918.337,VALID,0,VALID,93.4097,VALID,0,VALID,20.1513,VALID,39,VALID,0.546094,
2010-06-08, 01:12:05,VALID,918.323,VALID,0,VALID,93.9205,VALID,0,VALID,20.1513,VALID,336,VALID,1.03984,
2010-06-08, 01:13:05,VALID,918.29,VALID,0,VALID,93.7985,VALID,0,VALID,20.0928,VALID,19,VALID,1.76719,
2010-06-08, 01:14:05,VALID,918.264,VALID,0,VALID,93.6003,VALID,0,VALID,20.0733,VALID,16,VALID,1.37305,
2010-06-08, 01:15:05,VALID,918.281,VALID,0,VALID,93.425,VALID,0,VALID,20.1123,VALID,20,VALID,0.917578,
2010-06-08, 01:16:05,VALID,918.246,VALID,0,VALID,93.4402,VALID,0,VALID,20.1318,VALID,20,VALID,0.499219,
2010-06-08, 01:17:05,VALID,918.245,VALID,0,VALID,94.0425,VALID,0,VALID,20.1513,VALID,20,VALID,0.594141,
2010-06-08, 01:18:05,VALID,918.203,VALID,0,VALID,94.3703,VALID,0,VALID,20.0928,VALID,20,VALID,0.164844,
2010-06-08, 01:19:05,VALID,918.172,VALID,0,VALID,94.5837,VALID,0,VALID,20.0538,VALID,20,VALID,1.46211,
2010-06-08, 01:20:05,VALID,918.185,VALID,0,VALID,93.9052,VALID,0,VALID,20.0538,VALID,351,VALID,0.85,
2010-06-08, 01:21:05,VALID,918.197,VALID,0,VALID,93.5851,VALID,0,VALID,20.1123,VALID,311,VALID,1.16172,
2010-06-08, 01:22:05,VALID,918.186,VALID,0,VALID,94.0882,VALID,0,VALID,20.1303,VALID,240,VALID,0.555469,
2010-06-08, 01:23:05,VALID,918.174,VALID,0,VALID,94.4313,VALID,0,VALID,20.1123,VALID,240,VALID,0.386328,
2010-06-08, 01:24:05,VALID,918.18,VALID,0,VALID,94.7133,VALID,0,VALID,20.0733,VALID,240,VALID,0.5625,
2010-06-08, 01:25:05,VALID,918.098,VALID,0,VALID,94.7972,VALID,0,VALID,20.0733,VALID,240,VALID,1.05,
2010-06-08, 01:26:05,VALID,918.086,VALID,0,VALID,94.2788,VALID,0,VALID,20.0343,VALID,240,VALID,0.741016,
2010-06-08, 01:27:05,VALID,918.104,VALID,0,VALID,94.1949,VALID,0,VALID,20.0928,VALID,240,VALID,0.703516,
2010-06-08, 01:28:05,VALID,918.054,VALID,0,VALID,94.1034,VALID,0,VALID,20.1123,VALID,39,VALID,0.842578,
2010-06-08, 01:29:05,VALID,918.038,VALID,0,VALID,93.9662,VALID,0,VALID,20.0928,VALID,39,VALID,0.590625,
2010-06-08, 01:30:05,VALID,918.027,VALID,0,VALID,93.9052,VALID,0,VALID,20.0718,VALID,39,VALID,0.416016,
2010-06-08, 01:31:05,VALID,918.019,VALID,0,VALID,94.0348,VALID,0,VALID,20.0718,VALID,39,VALID,0.533203,
2010-06-08, 01:32:05,VALID,918.005,VALID,0,VALID,94.2407,VALID,0,VALID,20.1108,VALID,39,VALID,0.446484,
2010-06-08, 01:33:05,VALID,918.02,VALID,0,VALID,94.4236,VALID,0,VALID,20.0913,VALID,39,VALID,0.0125,
2010-06-08, 01:34:05,VALID,918.017,VALID,0,VALID,94.5532,VALID,0,VALID,20.0913,VALID,39,VALID,0.469141,
2010-06-08, 01:35:05,VALID,918.013,VALID,0,VALID,94.7743,VALID,0,VALID,20.0328,VALID,39,VALID,0.429297,
2010-06-08, 01:36:05,VALID,918.037,VALID,0,VALID,94.9268,VALID,0,VALID,20.0133,VALID,39,VALID,0.44375,
2010-06-08, 01:37:05,VALID,918.011,VALID,0,VALID,95.0792,VALID,0,VALID,19.9938,VALID,38,VALID,0.164063,
2010-06-08, 01:38:05,VALID,917.991,VALID,0,VALID,95.1783,VALID,0,VALID,19.9938,VALID,38,VALID,0,
2010-06-08, 01:39:05,VALID,917.998,VALID,0,VALID,95.1936,VALID,0,VALID,19.9548,VALID,38,VALID,0.326172,
2010-06-08, 01:40:05,VALID,917.95,VALID,0,VALID,95.2012,VALID,0,VALID,19.9353,VALID,38,VALID,0,
2010-06-08, 01:41:05,VALID,917.967,VALID,0,VALID,95.1783,VALID,0,VALID,19.8963,VALID,38,VALID,0,
2010-06-08, 01:42:05,VALID,917.944,VALID,0,VALID,95.2393,VALID,0,VALID,19.8963,VALID,38,VALID,0,
2010-06-08, 01:43:05,VALID,917.929,VALID,0,VALID,95.2393,VALID,0,VALID,19.8573,VALID,38,VALID,0.630859,
2010-06-08, 01:44:05,VALID,917.951,VALID,0,VALID,95.1402,VALID,0,VALID,19.8378,VALID,38,VALID,0.435937,
2010-06-08, 01:45:05,VALID,917.929,VALID,0,VALID,94.9801,VALID,0,VALID,19.8198,VALID,39,VALID,0.541406,
2010-06-08, 01:46:05,VALID,917.908,VALID,0,VALID,94.8658,VALID,0,VALID,19.7598,VALID,38,VALID,0.357422,
2010-06-08, 01:47:05,VALID,917.902,VALID,0,VALID,94.66,VALID,0,VALID,19.7403,VALID,38,VALID,0.892187,
2010-06-08, 01:48:05,VALID,917.908,VALID,0,VALID,94.6142,VALID,0,VALID,19.7418,VALID,38,VALID,1.44844,
2010-06-08, 01:49:05,VALID,917.922,VALID,0,VALID,94.4846,VALID,0,VALID,19.7598,VALID,19,VALID,1.31523,
2010-06-08, 01:50:05,VALID,917.915,VALID,0,VALID,94.3017,VALID,0,VALID,19.8183,VALID,19,VALID,0.882813,
2010-06-08, 01:51:05,VALID,917.936,VALID,0,VALID,93.9891,VALID,0,VALID,19.8573,VALID,19,VALID,0.543359,
2010-06-08, 01:52:05,VALID,917.884,VALID,0,VALID,93.6613,VALID,0,VALID,19.8768,VALID,19,VALID,0.248047,
2010-06-08, 01:53:05,VALID,917.89,VALID,0,VALID,93.4707,VALID,0,VALID,19.9173,VALID,19,VALID,0.515234,
2010-06-08, 01:54:05,VALID,917.887,VALID,0,VALID,93.3564,VALID,0,VALID,19.9158,VALID,19,VALID,0.303906,
2010-06-08, 01:55:05,VALID,917.901,VALID,0,VALID,93.2649,VALID,0,VALID,19.9353,VALID,19,VALID,0.10625,
2010-06-08, 01:56:05,VALID,917.887,VALID,0,VALID,93.1276,VALID,0,VALID,19.9353,VALID,19,VALID,0.7125,
2010-06-08, 01:57:05,VALID,917.85,VALID,0,VALID,92.9981,VALID,0,VALID,19.9563,VALID,19,VALID,0.359766,
2010-06-08, 01:58:05,VALID,917.832,VALID,0,VALID,92.9676,VALID,0.107441,VALID,19.9158,VALID,19,VALID,0.545313,
2010-06-08, 01:59:05,VALID,917.847,VALID,0,VALID,93.059,VALID,0,VALID,19.9158,VALID,19,VALID,0.320703,
2010-06-08, 02:00:05,VALID,917.823,VALID,0,VALID,93.2649,VALID,0,VALID,19.9173,VALID,19,VALID,0.389844,
2010-06-08, 02:01:05,VALID,917.812,VALID,0,VALID,93.4478,VALID,0,VALID,19.9173,VALID,19,VALID,0.184766,
2010-06-08, 02:02:05,VALID,917.779,VALID,0,VALID,93.2115,VALID,0,VALID,19.8783,VALID,19,VALID,0.837109,
2010-06-08, 02:03:05,VALID,917.757,VALID,0,VALID,93.4859,VALID,0,VALID,19.8408,VALID,19,VALID,0.760547,
2010-06-08, 02:04:05,VALID,917.735,VALID,0,VALID,93.6079,VALID,0,VALID,19.8003,VALID,19,VALID,0.617578,
2010-06-08, 02:05:05,VALID,917.702,VALID,0,VALID,93.7451,VALID,0,VALID,19.8213,VALID,19,VALID,0.528516,
2010-06-08, 02:06:05,VALID,917.703,VALID,0,VALID,93.5774,VALID,0,VALID,19.8003,VALID,19,VALID,0.571094,
2010-06-08, 02:07:05,VALID,917.671,VALID,0,VALID,93.6003,VALID,0,VALID,19.8003,VALID,19,VALID,0.886719,
2010-06-08, 02:08:05,VALID,917.669,VALID,0,VALID,93.7375,VALID,0,VALID,19.7808,VALID,19,VALID,0.802734,
2010-06-08, 02:09:05,VALID,917.69,VALID,0,VALID,93.5469,VALID,0,VALID,19.8018,VALID,19,VALID,0.626562,
2010-06-08, 02:10:05,VALID,917.678,VALID,0,VALID,93.4783,VALID,0,VALID,19.8003,VALID,19,VALID,0.415625,
2010-06-08, 02:11:05,VALID,917.65,VALID,0,VALID,93.5317,VALID,0,VALID,19.8003,VALID,19,VALID,0.236328,
2010-06-08, 02:12:05,VALID,917.656,VALID,0,VALID,93.4402,VALID,0,VALID,19.8003,VALID,19,VALID,0.492188,
2010-06-08, 02:13:05,VALID,917.637,VALID,0,VALID,93.4936,VALID,0,VALID,19.7613,VALID,19,VALID,0.463281,
2010-06-08, 02:14:05,VALID,917.616,VALID,0,VALID,93.8214,VALID,0,VALID,19.7238,VALID,19,VALID,0.408984,
2010-06-08, 02:15:05,VALID,917.608,VALID,0,VALID,93.9205,VALID,0,VALID,19.7028,VALID,18,VALID,0.403125,
2010-06-08, 02:16:05,VALID,917.555,VALID,0,VALID,93.6537,VALID,0,VALID,19.7028,VALID,18,VALID,0.364062,
2010-06-08, 02:17:05,VALID,917.569,VALID,0,VALID,93.5851,VALID,0,VALID,19.7823,VALID,17,VALID,0.5375,
2010-06-08, 02:18:05,VALID,917.578,VALID,0,VALID,93.4555,VALID,0,VALID,19.8018,VALID,17,VALID,0.463672,
2010-06-08, 02:19:05,VALID,917.56,VALID,0,VALID,93.4097,VALID,0,VALID,19.8603,VALID,17,VALID,0.529688,
2010-06-08, 02:20:05,VALID,917.58,VALID,0,VALID,93.3792,VALID,0,VALID,19.8993,VALID,17,VALID,0.429688,
2010-06-08, 02:21:05,VALID,917.567,VALID,0,VALID,93.1505,VALID,0,VALID,19.8978,VALID,5,VALID,0.795313,
2010-06-08, 02:22:05,VALID,917.579,VALID,0,VALID,92.8075,VALID,0,VALID,19.8978,VALID,5,VALID,0.844922,
2010-06-08, 02:23:05,VALID,917.584,VALID,0,VALID,93.0057,VALID,0,VALID,19.8978,VALID,5,VALID,0.366016,
2010-06-08, 02:24:05,VALID,917.581,VALID,0,VALID,93.1353,VALID,0,VALID,19.8993,VALID,5,VALID,0.7125,
2010-06-08, 02:25:05,VALID,917.554,VALID,0,VALID,93.0057,VALID,0,VALID,19.9173,VALID,5,VALID,1.00898,
2010-06-08, 02:26:05,VALID,917.535,VALID,0,VALID,92.7541,VALID,0,VALID,19.9368,VALID,5,VALID,1.1457,
2010-06-08, 02:27:05,VALID,917.554,VALID,0,VALID,92.8761,VALID,0,VALID,19.9758,VALID,5,VALID,0.028125,
2010-06-08, 02:28:05,VALID,917.553,VALID,0,VALID,92.8989,VALID,0,VALID,19.9953,VALID,5,VALID,0,
2010-06-08, 02:29:05,VALID,917.534,VALID,0,VALID,92.8989,VALID,0,VALID,19.9953,VALID,5,VALID,0.0644531,
2010-06-08, 02:30:05,VALID,917.519,VALID,0,VALID,92.8761,VALID,0.107441,VALID,19.9743,VALID,5,VALID,0.1875,
2010-06-08, 02:31:05,VALID,917.5,VALID,0,VALID,92.9142,VALID,0,VALID,19.9938,VALID,5,VALID,0.230078,
2010-06-08, 02:32:05,VALID,917.491,VALID,0,VALID,92.8685,VALID,0.107441,VALID,19.9938,VALID,5,VALID,0.505859,
2010-06-08, 02:33:05,VALID,917.472,VALID,0,VALID,93.0285,VALID,0.107441,VALID,19.9548,VALID,5,VALID,0.333984,
2010-06-08, 02:34:05,VALID,917.454,VALID,0,VALID,93.2344,VALID,0.107441,VALID,19.9158,VALID,5,VALID,0.292969,
2010-06-08, 02:35:05,VALID,917.448,VALID,0,VALID,93.3106,VALID,0.107441,VALID,19.8963,VALID,5,VALID,0.292188,
2010-06-08, 02:36:04,VALID,917.416,VALID,0,VALID,93.3487,VALID,0.107441,VALID,19.8768,VALID,5,VALID,0.610547,
2010-06-08, 02:37:04,VALID,917.399,VALID,0,VALID,93.1963,VALID,0.107441,VALID,19.9353,VALID,5,VALID,0.0121094,
2010-06-08, 02:38:04,VALID,917.367,VALID,0,VALID,93.2039,VALID,0.107441,VALID,19.9743,VALID,4,VALID,0.273047,
2010-06-08, 02:39:04,VALID,917.383,VALID,0,VALID,92.9447,VALID,0,VALID,19.9548,VALID,5,VALID,0.504687,
2010-06-08, 02:40:04,VALID,917.37,VALID,0,VALID,92.9599,VALID,0.107441,VALID,19.9743,VALID,4,VALID,0.382031,
2010-06-08, 02:41:04,VALID,917.37,VALID,0,VALID,92.9066,VALID,0.107441,VALID,19.9938,VALID,4,VALID,0.828125,
2010-06-08, 02:42:04,VALID,917.378,VALID,0,VALID,92.5178,VALID,0.107441,VALID,20.0328,VALID,325,VALID,0.389062,
2010-06-08, 02:43:04,VALID,917.35,VALID,0,VALID,92.655,VALID,0,VALID,20.0718,VALID,324,VALID,0.122266,
2010-06-08, 02:44:04,VALID,917.338,VALID,0,VALID,92.9218,VALID,0.107441,VALID,20.0328,VALID,325,VALID,0.627734,
2010-06-08, 02:45:04,VALID,917.33,VALID,0,VALID,92.9599,VALID,0,VALID,19.9758,VALID,324,VALID,0.619141,
2010-06-08, 02:46:04,VALID,917.299,VALID,0,VALID,92.8989,VALID,0,VALID,19.9563,VALID,325,VALID,0.988672,
2010-06-08, 02:47:04,VALID,917.307,VALID,0,VALID,92.8989,VALID,0,VALID,19.9368,VALID,324,VALID,0.618359,
2010-06-08, 02:48:04,VALID,917.33,VALID,0,VALID,93.0743,VALID,0,VALID,19.9368,VALID,325,VALID,0.432813,
2010-06-08, 02:49:04,VALID,917.348,VALID,0,VALID,92.9142,VALID,0,VALID,19.8978,VALID,325,VALID,1.04297,
2010-06-08, 02:50:04,VALID,917.365,VALID,0,VALID,93.0133,VALID,0,VALID,19.8783,VALID,325,VALID,0.751562,
2010-06-08, 02:51:04,VALID,917.348,VALID,0,VALID,93.12,VALID,0,VALID,19.8588,VALID,325,VALID,0.671484,
2010-06-08, 02:52:04,VALID,917.372,VALID,0,VALID,93.181,VALID,0,VALID,19.8393,VALID,325,VALID,1.13203,
2010-06-08, 02:53:04,VALID,917.402,VALID,0,VALID,93.3487,VALID,0,VALID,19.8198,VALID,325,VALID,0.146094,
2010-06-08, 02:54:04,VALID,917.41,VALID,0,VALID,93.7528,VALID,0,VALID,19.8198,VALID,325,VALID,0.0378906,
2010-06-08, 02:55:04,VALID,917.424,VALID,0,VALID,94.1339,VALID,0,VALID,19.8393,VALID,325,VALID,0.588281,
2010-06-08, 02:56:04,VALID,917.416,VALID,0,VALID,94.3779,VALID,0,VALID,19.8198,VALID,325,VALID,0.5625,
2010-06-08, 02:57:04,VALID,917.403,VALID,0,VALID,94.5304,VALID,0,VALID,19.7808,VALID,325,VALID,0.143359,
2010-06-08, 02:58:04,VALID,917.397,VALID,0,VALID,94.7286,VALID,0,VALID,19.7613,VALID,325,VALID,0.161719,
2010-06-08, 02:59:04,VALID,917.372,VALID,0,VALID,94.881,VALID,0,VALID,19.7223,VALID,325,VALID,0.657812,
2010-06-08, 03:00:04,VALID,917.369,VALID,0,VALID,95.1174,VALID,0,VALID,19.7013,VALID,325,VALID,0.938672,
2010-06-08, 03:01:04,VALID,917.346,VALID,0,VALID,95.3232,VALID,0,VALID,19.6623,VALID,325,VALID,0.329688,
2010-06-08, 03:02:04,VALID,917.353,VALID,0,VALID,95.4528,VALID,0.107441,VALID,19.6428,VALID,325,VALID,0.219531,
2010-06-08, 03:03:04,VALID,917.362,VALID,0,VALID,95.5595,VALID,0.107441,VALID,19.6233,VALID,325,VALID,0,
2010-06-08, 03:04:04,VALID,917.363,VALID,0,VALID,95.6662,VALID,0.107441,VALID,19.6233,VALID,325,VALID,0,
2010-06-08, 03:05:04,VALID,917.369,VALID,0,VALID,95.6967,VALID,0.107441,VALID,19.6023,VALID,325,VALID,0,
2010-06-08, 03:06:04,VALID,917.362,VALID,0,VALID,95.712,VALID,0.107441,VALID,19.6038,VALID,325,VALID,0,
2010-06-08, 03:07:04,VALID,917.382,VALID,0,VALID,95.6586,VALID,0.107441,VALID,19.5843,VALID,325,VALID,0,
2010-06-08, 03:08:04,VALID,917.4,VALID,0,VALID,95.6586,VALID,0,VALID,19.6053,VALID,325,VALID,0,
2010-06-08, 03:09:04,VALID,917.396,VALID,0,VALID,95.6662,VALID,0.107441,VALID,19.5843,VALID,325,VALID,0.323438,
2010-06-08, 03:10:04,VALID,917.392,VALID,0,VALID,95.5443,VALID,0,VALID,19.5843,VALID,325,VALID,0.611719,
2010-06-08, 03:11:04,VALID,917.367,VALID,0,VALID,95.2927,VALID,0.107441,VALID,19.5843,VALID,11,VALID,1.14492,
2010-06-08, 03:12:04,VALID,917.38,VALID,0,VALID,94.9725,VALID,0.107441,VALID,19.6233,VALID,17,VALID,0.709375,
2010-06-08, 03:13:04,VALID,917.415,VALID,0,VALID,94.6905,VALID,0.107441,VALID,19.6428,VALID,17,VALID,0.145313,
2010-06-08, 03:14:04,VALID,917.375,VALID,0,VALID,94.599,VALID,0.107441,VALID,19.6623,VALID,17,VALID,0.415234,
2010-06-08, 03:15:04,VALID,917.369,VALID,0,VALID,94.4236,VALID,0,VALID,19.6653,VALID,16,VALID,0.784766,
2010-06-08, 03:16:04,VALID,917.413,VALID,0,VALID,94.5456,VALID,0,VALID,19.6248,VALID,17,VALID,1.00156,
2010-06-08, 03:17:04,VALID,917.381,VALID,0,VALID,94.6981,VALID,0,VALID,19.6443,VALID,17,VALID,0.0984375,
2010-06-08, 03:18:04,VALID,917.348,VALID,0,VALID,94.7591,VALID,0,VALID,19.6638,VALID,17,VALID,1.05547,
2010-06-08, 03:19:04,VALID,917.333,VALID,0,VALID,94.7896,VALID,0,VALID,19.6443,VALID,17,VALID,0.79375,
2010-06-08, 03:20:04,VALID,917.327,VALID,0,VALID,94.9268,VALID,0,VALID,19.6443,VALID,30,VALID,1.07891,
2010-06-08, 03:21:04,VALID,917.348,VALID,0,VALID,95.003,VALID,0,VALID,19.6443,VALID,54,VALID,0.697266,
2010-06-08, 03:22:04,VALID,917.326,VALID,0,VALID,95.0411,VALID,0,VALID,19.6638,VALID,54,VALID,0.33125,
2010-06-08, 03:23:04,VALID,917.354,VALID,0,VALID,95.064,VALID,0,VALID,19.6833,VALID,54,VALID,0.516406,
2010-06-08, 03:24:04,VALID,917.323,VALID,0,VALID,95.0106,VALID,0,VALID,19.6638,VALID,54,VALID,0.931641,
2010-06-08, 03:25:04,VALID,917.346,VALID,0,VALID,95.3003,VALID,0,VALID,19.6833,VALID,41,VALID,1.46484,
2010-06-08, 03:26:04,VALID,917.342,VALID,0,VALID,95.4909,VALID,0,VALID,19.7223,VALID,31,VALID,1.60391,
2010-06-08, 03:27:04,VALID,917.3,VALID,0,VALID,95.5671,VALID,0,VALID,19.7418,VALID,28,VALID,0.424609,
2010-06-08, 03:28:04,VALID,917.315,VALID,0,VALID,95.5214,VALID,0,VALID,19.7613,VALID,28,VALID,0.257422,
2010-06-08, 03:29:04,VALID,917.346,VALID,0,VALID,95.5138,VALID,0,VALID,19.7598,VALID,28,VALID,0.478125,
2010-06-08, 03:30:04,VALID,917.325,VALID,0,VALID,95.529,VALID,0,VALID,19.8003,VALID,28,VALID,0.30625,
2010-06-08, 03:31:04,VALID,917.346,VALID,0,VALID,95.4757,VALID,0,VALID,19.7808,VALID,28,VALID,0.04375,
2010-06-08, 03:32:04,VALID,917.325,VALID,0,VALID,95.3766,VALID,0,VALID,19.7598,VALID,28,VALID,0.483984,
2010-06-08, 03:33:04,VALID,917.304,VALID,0,VALID,95.3079,VALID,0,VALID,19.7808,VALID,28,VALID,0.837109,
2010-06-08, 03:34:04,VALID,917.333,VALID,0,VALID,95.3079,VALID,0,VALID,19.7808,VALID,7,VALID,1.35039,
2010-06-08, 03:35:04,VALID,917.354,VALID,0,VALID,95.4299,VALID,0,VALID,19.8213,VALID,50,VALID,0.467578,
2010-06-08, 03:36:04,VALID,917.303,VALID,0,VALID,95.2241,VALID,0,VALID,19.8198,VALID,51,VALID,0.605078,
2010-06-08, 03:37:04,VALID,917.398,VALID,0,VALID,95.1021,VALID,0,VALID,19.8588,VALID,98,VALID,0.619141,
2010-06-08, 03:38:04,VALID,917.36,VALID,0,VALID,94.9649,VALID,0,VALID,19.8978,VALID,97,VALID,0.335156,
2010-06-08, 03:39:04,VALID,917.372,VALID,0,VALID,94.7057,VALID,0,VALID,19.8978,VALID,39,VALID,0.307813,
2010-06-08, 03:40:04,VALID,917.377,VALID,0,VALID,94.5151,VALID,0,VALID,19.9173,VALID,81,VALID,1.30859,
2010-06-08, 03:41:04,VALID,917.395,VALID,0,VALID,94.3626,VALID,0,VALID,19.9563,VALID,207,VALID,0.465234,
2010-06-08, 03:42:04,VALID,917.398,VALID,0,VALID,94.3245,VALID,0,VALID,19.9758,VALID,25,VALID,2.03945,
2010-06-08, 03:43:04,VALID,917.397,VALID,0,VALID,94.4008,VALID,0,VALID,19.9758,VALID,37,VALID,0.993359,
2010-06-08, 03:44:04,VALID,917.454,VALID,0,VALID,94.4008,VALID,0,VALID,19.9953,VALID,36,VALID,0.289453,
2010-06-08, 03:45:04,VALID,917.449,VALID,0,VALID,94.355,VALID,0,VALID,19.9758,VALID,36,VALID,0.959766,